This demonstration page uses our WeatherBlox Daily Observations layout. Learn more.

Left ArrowRight Arrow

38.20091, -84.87328

Hourly Observations for July 4, 2019

Temp ( °F °C ) Dew Point ( °F °C ) Humidity (%) Winds ( mph kmh ) Pressure ( in mb ) Visibility ( mi km ) Precip ( " mm )
12:53 am 00:53 Clear 72 22.2 70 21.1 94 94 Calm 29.96 1014 10 16 0.00 0.00
1:53 am 01:53 Clear 71 21.7 69 20.6 94 94 SSE 3 6 29.96 1015 10 16 0.00 0.00
2:10 am 02:10 Mostly Clear 71 21.7 69 20.6 94 94 SSW 5 7 29.98 1015 10 16 0.00 0.00
2:53 am 02:53 Clear 71 21.7 69 20.6 94 94 SSW 5 7 29.97 1015 10 16 0.00 0.00
3:53 am 03:53 Clear 70 21.1 68 20 93 93 Calm 29.97 1015 10 16 0.00 0.00
4:53 am 04:53 Mostly Cloudy 69 20.6 67 19.4 93 93 Calm 29.96 1015 10 16 0.00 0.00
5:24 am 05:24 Mostly Clear with Mist and Fog 70 21.1 68 20 93 93 ENE 3 6 29.97 1015 3 4 0.00 0.00
5:26 am 05:26 Mostly Cloudy with Mist and Fog 70 21.1 68 20 93 93 Calm 29.97 1015 1 2 0.00 0.00
5:34 am 05:34 Mostly Cloudy with Fog 69 20.6 67 19.4 93 93 NE 3 6 29.97 1015 1 1 0.00 0.00
5:43 am 05:43 Partly Cloudy with Mist and Fog 70 21.1 68 20 93 93 ENE 3 6 29.97 1015 1 2 0.00 0.00
5:53 am 05:53 Mostly Cloudy with Mist and Fog 69 20.6 68 20 96 96 Calm 29.97 1015 1 2 0.00 0.00
6:00 am 06:00 Mostly Clear with Mist and Fog 68 20 67 19.4 96 96 Calm 29.98 1015 2 3 0.00 0.00
6:07 am 06:07 Clear 69 20.6 67 19.4 93 93 Calm 29.98 1015 8 13 0.00 0.00
6:53 am 06:53 Mostly Sunny 69 20.6 68 20 96 96 SE 3 6 29.99 1016 10 16 0.00 0.00
7:53 am 07:53 Sunny 72 22.2 69 20.6 91 91 S 6 9 30.01 1016 10 16 0.00 0.00
8:33 am 08:33 Mostly Sunny 74 23.3 70 21.1 88 88 SSE 5 7 30.00 1016 10 16 0.00 0.00
8:53 am 08:53 Mostly Sunny 75 23.9 70 21.1 84 84 SW 7 11 30.02 1017 10 16 0.00 0.00
9:46 am 09:46 Mostly Cloudy 76 24.4 71 21.7 85 85 SSW 3 6 30.02 1017 10 16 0.00 0.00
9:53 am 09:53 Mostly Cloudy 77 25 71 21.7 82 82 WNW 3 6 30.03 1017 10 16 0.00 0.00
10:27 am 10:27 Cloudy 76 24.4 71 21.7 85 85 SW 3 6 30.02 1017 10 16 0.00 0.00
10:53 am 10:53 Cloudy 77 25 71 21.7 82 82 SW 3 6 30.04 1017 10 16 0.00 0.00
11:53 am 11:53 Cloudy 77 25 71 21.7 82 82 WSW 3 6 30.04 1017 10 16 0.00 0.00
12:42 pm 12:42 Mostly Cloudy 82 27.8 72 22.2 72 72 VRB 3 6 30.03 1017 10 16 0.00 0.00
12:53 pm 12:53 Mostly Cloudy 82 27.8 72 22.2 72 72 VRB 5 7 30.04 1017 10 16 0.00 0.00
1:07 pm 13:07 Partly Cloudy 82 27.8 71 21.7 69 69 W 3 6 30.03 1017 10 16 0.00 0.00
1:44 pm 13:44 Mostly Cloudy 85 29.4 72 22.2 65 65 SW 6 9 30.02 1016 10 16 0.00 0.00
1:53 pm 13:53 Partly Cloudy 84 28.9 71 21.7 65 65 VRB 6 9 30.03 1017 10 16 0.00 0.00
2:41 pm 14:41 Mostly Cloudy 86 30 71 21.7 61 61 VRB 5 7 29.98 1015 10 16 0.00 0.00
2:51 pm 14:51 Mostly Cloudy 84 29 72 22 66 66 VRB 5 7 29.99 1015 10 16 0.00 0.00
2:53 pm 14:53 Cloudy 85 29.4 72 22.2 65 65 WNW 3 6 30.00 1016 10 16 0.00 0.00
3:53 pm 15:53 Mostly Sunny 86 30 70 21.1 59 59 NNW 5 7 29.99 1016 10 16 0.00 0.00
4:53 pm 16:53 Partly Cloudy 85 29.4 71 21.7 63 63 WSW 6 9 29.98 1015 10 16 0.00 0.00
5:53 pm 17:53 Partly Cloudy 88 31.1 70 21.1 55 55 VRB 3 6 29.96 1015 10 16 0.00 0.00
6:53 pm 18:53 Partly Cloudy 82 27.8 72 22.2 72 72 WSW 6 9 29.97 1015 10 16 0.00 0.00
7:53 pm 19:53 Partly Cloudy 81 27.2 73 22.8 77 77 SSW 5 7 29.98 1015 10 16 0.00 0.00
8:53 pm 20:53 Sunny 80 26.7 71 21.7 74 74 SSW 7 11 30.00 1016 10 16 0.00 0.00
9:32 pm 21:32 Mostly Clear 78 25.6 71 21.7 79 79 SW 5 7 30.00 1016 10 16 0.00 0.00
9:53 pm 21:53 Mostly Clear 78 25.6 71 21.7 79 79 SW 3 6 30.01 1016 10 16 0.00 0.00
10:53 pm 22:53 Mostly Cloudy 76 24.4 70 21.1 82 82 SSW 3 6 30.04 1017 10 16 0.00 0.00
11:53 pm 23:53 Clear 75 23.9 71 21.7 88 88 S 6 9 30.04 1017 10 16 0.00 0.00

Powered by AerisWeather